Carlsbad, NM

10:33 AM MDT on May 20, 2018 (GMT -0600)
Cavern City

Weather History for KCNM - August, 2014

Change the Weather History Date:

Friday, August 29, 2014

  Actual Average Record
Temperature  
Mean Temperature 81 °F -  
Max Temperature 96 °F 90 °F 102 °F (1962)
Min Temperature 69 °F 64 °F 33 °F (1996)
Cooling Degree Days 16    
Growing Degree Days 31 (Base 50)    
Moisture  
Dew Point 51 °F    
Average Humidity 36    
Maximum Humidity 58    
Minimum Humidity 17    
Precipitation  
Precipitation 0.00 in - - ()
Sea Level Pressure  
Sea Level Pressure 29.82 in    
Wind  
Wind Speed 11 mph (NNW)    
Max Wind Speed 23 mph    
Max Gust Speed 29 mph    
Visibility 10 miles    
Events      
Averages and records for this station are not official NWS values.
T = Trace of Precipitation, MM = Missing Value Source: NWS Daily Summary

Daily Weather History Graph

Daily Weather History Graph

Search for Another Location

Airport or City:

Astronomy

Aug. 29, 2014 Rise Set
Actual Time 6:30 AM MDT 7:25 PM MDT
Civil Twilight 6:05 AM MDT 7:50 PM MDT
Nautical Twilight 5:35 AM MDT 8:19 PM MDT
Astronomical Twilight 5:04 AM MDT 8:50 PM MDT
Moon 10:06 AM MDT (8/29) 9:40 PM MDT (8/29)
Length of Visible Light 13h 45m
Length of Day
12h 54m
Waxing Crescent, 15% of the Moon is Illuminated
Aug 29
Waxing Crescent
Sep 2
First Quarter
Sep 8
Full
Sep 15
Last Quarter
Sep 24
New

Hourly Weather History & Observations

Time (MDT) Temp. Heat Index Dew Point Humidity Pressure Visibility Wind Dir Wind Speed Gust Speed Precip Events Conditions
12:53 AM 73.9 °F - 51.1 °F 45% 29.76 in 10.0 mi WNW 9.2 mph - N/A   Clear
1:53 AM 71.1 °F - 50.0 °F 47% 29.75 in 10.0 mi West 6.9 mph - N/A   Clear
2:53 AM 69.1 °F - 48.0 °F 47% 29.76 in 10.0 mi NW 9.2 mph - N/A   Clear
3:53 AM 73.9 °F - 46.9 °F 38% 29.76 in 10.0 mi NW 11.5 mph - N/A   Clear
4:53 AM 73.0 °F - 48.0 °F 41% 29.77 in 10.0 mi NW 12.7 mph - N/A   Clear
5:53 AM 71.1 °F - 50.0 °F 47% 29.81 in 10.0 mi NNW 15.0 mph - N/A   Clear
6:53 AM 69.1 °F - 54.0 °F 58% 29.83 in 10.0 mi WNW 9.2 mph - N/A   Clear
7:53 AM 73.9 °F - 51.1 °F 45% 29.85 in 10.0 mi NW 15.0 mph 24.2 mph N/A   Clear
8:53 AM 75.2 °F - 51.8 °F 44% 30.03 in 10.0 mi NNW 23.0 mph 28.8 mph N/A   Clear
9:53 AM 79.0 °F - 54.0 °F 42% 29.87 in 10.0 mi NNW 20.7 mph 27.6 mph N/A   Clear
10:53 AM 81.0 °F 81.0 °F 57.0 °F 44% 29.87 in 10.0 mi NNW 19.6 mph - N/A   Clear
11:53 AM 84.0 °F 83.5 °F 57.9 °F 41% 29.85 in 10.0 mi NNW 17.3 mph 24.2 mph N/A   Clear
12:53 PM 88.0 °F 86.9 °F 57.9 °F 36% 29.83 in 10.0 mi North 12.7 mph 20.7 mph N/A   Clear
1:53 PM 91.4 °F 89.4 °F 55.4 °F 29% 29.98 in 10.0 mi North 12.7 mph - N/A   Clear
2:53 PM 93.0 °F 90.6 °F 53.1 °F 26% 29.78 in 10.0 mi North 6.9 mph - N/A   Clear
3:53 PM 93.0 °F - 46.0 °F 20% 29.75 in 10.0 mi Variable 4.6 mph - N/A   Clear
4:53 PM 93.9 °F - 45.0 °F 18% 29.73 in 10.0 mi Variable 5.8 mph - N/A   Clear
5:53 PM 93.9 °F - 43.0 °F 17% 29.73 in 10.0 mi NW 9.2 mph - N/A   Clear
6:53 PM 93.0 °F - 43.0 °F 18% 29.74 in 10.0 mi NNW 8.1 mph - N/A   Clear
7:53 PM 86.0 °F - 46.0 °F 25% 29.76 in 10.0 mi NW 6.9 mph - N/A   Clear
8:53 PM 82.4 °F - 48.2 °F 30% 29.96 in 10.0 mi NNE 9.2 mph - N/A   Clear
9:53 PM 82.0 °F - 51.1 °F 34% 29.81 in 10.0 mi ENE 6.9 mph - N/A   Clear
10:53 PM 80.1 °F 79.9 °F 53.1 °F 39% 29.83 in 10.0 mi SSE 5.8 mph - N/A   Scattered Clouds
11:53 PM 78.1 °F - 53.1 °F 42% 29.84 in 10.0 mi SW 3.5 mph - N/A   Mostly Cloudy